1 Anzeige mit Außen Messungen

Zurück zum Überblick

Zeitpunkt Temperatur Innen Luftfeuchte Innen Luftqualität Temperatur Außen
15.07.2019 23:59:34 24,0 C 46,0% 150 ppm 13,6 C
15.07.2019 23:54:43 24,0 C 46,0% 750 ppm 13,7 C
15.07.2019 23:48:39 24,0 C 46,0% 700 ppm 13,8 C
15.07.2019 23:42:39 24,0 C 46,0% 700 ppm 13,8 C
15.07.2019 23:36:38 24,0 C 46,0% 700 ppm 13,8 C
15.07.2019 23:30:39 24,0 C 46,0% 700 ppm 13,9 C
15.07.2019 23:21:47 24,0 C 46,0% 150 ppm 14,1 C
15.07.2019 23:12:39 24,0 C 46,0% 700 ppm 14,1 C
15.07.2019 23:06:40 24,0 C 46,0% 650 ppm 14,1 C
15.07.2019 23:00:43 24,0 C 46,0% 650 ppm 14,4 C
15.07.2019 22:56:07 24,0 C 46,0% 150 ppm 14,2 C
15.07.2019 22:42:38 24,0 C 46,0% 650 ppm 14,4 C
15.07.2019 22:36:41 24,0 C 46,0% 650 ppm 14,5 C
15.07.2019 22:30:37 24,0 C 46,0% 650 ppm 14,7 C
15.07.2019 22:24:37 24,0 C 46,0% 600 ppm 14,9 C
15.07.2019 22:18:38 24,0 C 46,0% 600 ppm 14,8 C
15.07.2019 22:12:44 24,0 C 46,0% 600 ppm 14,8 C
15.07.2019 22:06:41 24,0 C 46,0% 600 ppm 14,9 C
15.07.2019 22:00:39 24,0 C 46,0% 600 ppm 15,0 C
15.07.2019 21:54:41 24,0 C 46,0% 550 ppm 15,1 C
15.07.2019 21:42:40 24,0 C 46,0% 550 ppm 15,3 C
15.07.2019 21:41:33 24,0 C 46,0% 100 ppm 15,2 C
15.07.2019 21:36:39 24,0 C 46,0% 550 ppm 15,6 C
15.07.2019 21:30:37 24,0 C 46,0% 550 ppm 15,5 C
15.07.2019 21:24:40 24,0 C 46,0% 500 ppm 15,6 C
15.07.2019 21:18:41 24,0 C 46,0% 500 ppm 15,8 C
15.07.2019 21:12:36 24,0 C 46,0% 500 ppm 15,8 C
15.07.2019 21:06:39 24,0 C 45,0% 500 ppm 16,0 C
15.07.2019 21:00:40 24,0 C 45,0% 500 ppm 15,9 C
15.07.2019 20:54:37 24,0 C 45,0% 500 ppm 16,0 C
15.07.2019 20:48:40 24,0 C 45,0% 450 ppm 16,1 C
15.07.2019 20:42:39 24,0 C 45,0% 450 ppm 16,4 C
15.07.2019 20:36:35 24,0 C 45,0% 450 ppm 16,5 C
15.07.2019 20:27:43 24,0 C 45,0% 100 ppm 16,5 C
15.07.2019 20:24:36 24,0 C 45,0% 500 ppm 16,9 C
15.07.2019 20:18:36 24,0 C 45,0% 500 ppm 17,1 C
15.07.2019 20:12:35 24,0 C 45,0% 500 ppm 17,1 C
15.07.2019 20:03:43 24,0 C 45,0% 100 ppm 17,4 C
15.07.2019 20:00:42 24,0 C 45,0% 500 ppm 17,6 C
15.07.2019 19:54:38 24,0 C 45,0% 500 ppm 18,0 C
15.07.2019 19:48:34 24,0 C 45,0% 500 ppm 17,8 C
15.07.2019 19:42:36 24,0 C 46,0% 500 ppm 17,8 C
15.07.2019 19:36:35 24,0 C 46,0% 500 ppm 17,7 C
15.07.2019 19:30:34 24,0 C 46,0% 500 ppm 18,1 C
15.07.2019 19:24:33 24,0 C 46,0% 500 ppm 18,1 C
15.07.2019 19:18:39 24,0 C 46,0% 500 ppm 18,1 C
15.07.2019 19:12:39 24,0 C 46,0% 500 ppm 18,2 C
15.07.2019 19:06:40 24,0 C 46,0% 500 ppm 18,1 C
15.07.2019 19:00:34 24,0 C 46,0% 500 ppm 18,2 C
15.07.2019 18:54:34 24,0 C 46,0% 500 ppm 18,8 C
15.07.2019 18:48:39 24,0 C 46,0% 500 ppm 18,7 C
15.07.2019 18:42:34 24,0 C 46,0% 500 ppm 18,6 C
15.07.2019 18:36:39 24,0 C 46,0% 500 ppm 19,2 C
15.07.2019 18:30:37 24,0 C 46,0% 500 ppm 19,3 C
15.07.2019 18:24:39 24,0 C 46,0% 500 ppm 19,1 C
15.07.2019 18:18:38 24,0 C 46,0% 500 ppm 19,8 C
15.07.2019 18:12:35 24,0 C 46,0% 500 ppm 19,5 C
15.07.2019 18:06:34 24,0 C 46,0% 500 ppm 19,6 C
15.07.2019 18:00:35 24,0 C 46,0% 500 ppm 19,7 C
15.07.2019 17:54:36 24,0 C 46,0% 500 ppm 19,5 C
15.07.2019 17:48:40 24,0 C 46,0% 500 ppm 18,8 C
15.07.2019 17:42:35 24,0 C 46,0% 500 ppm 19,4 C
15.07.2019 17:36:34 24,0 C 46,0% 550 ppm 19,8 C
15.07.2019 17:30:39 24,0 C 46,0% 500 ppm 19,5 C
15.07.2019 17:24:38 24,0 C 46,0% 550 ppm 19,9 C
15.07.2019 17:18:40 24,0 C 46,0% 550 ppm 19,9 C
15.07.2019 17:12:34 24,0 C 46,0% 550 ppm 19,8 C
15.07.2019 17:06:33 24,0 C 46,0% 550 ppm 20,2 C
15.07.2019 17:00:35 24,0 C 46,0% 550 ppm 20,4 C
15.07.2019 16:54:39 24,0 C 46,0% 550 ppm 20,9 C
15.07.2019 16:48:37 24,0 C 46,0% 550 ppm 20,9 C
15.07.2019 16:42:39 24,0 C 46,0% 550 ppm 21,2 C
15.07.2019 16:36:37 24,0 C 46,0% 550 ppm 21,2 C
15.07.2019 16:30:35 24,0 C 46,0% 500 ppm 22,3 C
15.07.2019 16:24:34 24,0 C 46,0% 500 ppm 21,5 C
15.07.2019 16:18:38 24,0 C 46,0% 500 ppm 21,0 C
15.07.2019 16:12:37 24,0 C 46,0% 500 ppm 20,7 C
15.07.2019 16:06:35 24,0 C 46,0% 500 ppm 20,5 C
15.07.2019 16:00:38 24,0 C 46,0% 500 ppm 21,2 C
15.07.2019 15:54:34 24,0 C 46,0% 500 ppm 21,5 C
15.07.2019 15:48:37 24,0 C 46,0% 500 ppm 22,4 C
15.07.2019 15:42:35 24,0 C 46,0% 500 ppm 21,8 C
15.07.2019 15:36:33 24,0 C 46,0% 500 ppm 22,1 C
15.07.2019 15:30:34 24,0 C 46,0% 500 ppm 21,5 C
15.07.2019 15:24:32 24,0 C 46,0% 500 ppm 22,4 C
15.07.2019 15:18:34 24,0 C 46,0% 500 ppm 22,2 C
15.07.2019 15:12:35 24,0 C 46,0% 500 ppm 22,6 C
15.07.2019 15:06:34 24,0 C 46,0% 500 ppm 22,6 C
15.07.2019 15:00:34 24,0 C 46,0% 500 ppm 23,1 C
15.07.2019 14:54:36 24,0 C 46,0% 500 ppm 23,0 C
15.07.2019 14:48:34 24,0 C 46,0% 500 ppm 23,4 C
15.07.2019 14:42:32 24,0 C 46,0% 500 ppm 24,1 C
15.07.2019 14:36:32 24,0 C 46,0% 500 ppm 23,5 C
15.07.2019 14:30:32 24,0 C 46,0% 500 ppm 24,3 C
15.07.2019 14:24:35 24,0 C 46,0% 500 ppm 24,9 C
15.07.2019 14:18:31 24,0 C 46,0% 500 ppm 25,0 C
15.07.2019 14:12:32 24,0 C 46,0% 500 ppm 25,2 C
15.07.2019 14:03:40 24,0 C 46,0% 100 ppm 24,0 C
15.07.2019 14:00:33 24,0 C 46,0% 500 ppm 22,1 C
15.07.2019 13:54:33 24,0 C 46,0% 500 ppm 21,4 C
15.07.2019 13:48:35 24,0 C 46,0% 500 ppm 21,4 C
15.07.2019 13:42:32 24,0 C 46,0% 500 ppm 21,9 C
15.07.2019 13:36:32 24,0 C 46,0% 500 ppm 22,5 C
15.07.2019 13:30:31 24,0 C 46,0% 500 ppm 22,6 C
15.07.2019 13:24:33 24,0 C 46,0% 500 ppm 22,1 C
15.07.2019 13:18:33 24,0 C 46,0% 450 ppm 21,4 C
15.07.2019 13:12:32 24,0 C 46,0% 450 ppm 21,4 C
15.07.2019 13:06:31 24,0 C 46,0% 450 ppm 21,3 C
15.07.2019 13:00:32 24,0 C 46,0% 450 ppm 20,4 C
15.07.2019 12:54:33 24,0 C 46,0% 450 ppm 20,0 C
15.07.2019 12:48:34 24,0 C 46,0% 450 ppm 20,3 C
15.07.2019 12:42:35 24,0 C 46,0% 500 ppm 20,7 C
15.07.2019 12:36:29 24,0 C 46,0% 500 ppm 20,7 C
15.07.2019 12:30:30 24,0 C 46,0% 450 ppm 21,0 C
15.07.2019 12:24:30 24,0 C 46,0% 500 ppm 21,2 C
15.07.2019 12:19:54 24,0 C 46,0% 100 ppm 21,1 C
15.07.2019 12:12:29 24,0 C 46,0% 450 ppm 20,6 C
15.07.2019 12:06:33 24,0 C 46,0% 450 ppm 20,8 C
15.07.2019 12:00:32 24,0 C 46,0% 450 ppm 20,6 C
15.07.2019 11:54:32 24,0 C 46,0% 450 ppm 20,4 C
15.07.2019 11:48:28 24,0 C 46,0% 450 ppm 20,4 C
15.07.2019 11:42:27 24,0 C 46,0% 450 ppm 19,4 C
15.07.2019 11:36:29 24,0 C 46,0% 450 ppm 19,1 C
15.07.2019 11:30:29 24,0 C 46,0% 450 ppm 19,2 C
15.07.2019 11:24:33 23,5 C 46,0% 450 ppm 19,2 C
15.07.2019 11:18:28 23,5 C 46,0% 450 ppm 19,0 C
15.07.2019 11:12:31 23,5 C 46,0% 450 ppm 19,0 C
15.07.2019 11:06:32 23,5 C 46,0% 450 ppm 19,6 C
15.07.2019 11:00:28 23,5 C 46,0% 450 ppm 19,4 C
15.07.2019 10:54:31 23,5 C 46,0% 450 ppm 19,2 C
15.07.2019 10:48:29 23,5 C 46,0% 450 ppm 18,9 C
15.07.2019 10:42:27 23,5 C 46,0% 450 ppm 18,8 C
15.07.2019 10:36:27 23,5 C 46,0% 450 ppm 18,5 C
15.07.2019 10:30:26 23,5 C 46,0% 450 ppm 18,0 C
15.07.2019 10:24:29 23,5 C 46,0% 450 ppm 17,9 C
15.07.2019 10:18:27 23,5 C 46,0% 450 ppm 17,5 C
15.07.2019 10:12:26 23,5 C 46,0% 450 ppm 17,3 C
15.07.2019 10:06:28 23,5 C 46,0% 450 ppm 17,0 C
15.07.2019 10:00:29 23,5 C 46,0% 450 ppm 16,6 C
15.07.2019 09:54:30 23,5 C 46,0% 450 ppm 16,6 C
15.07.2019 09:48:29 23,5 C 46,0% 450 ppm 16,7 C
15.07.2019 09:42:26 23,5 C 46,0% 450 ppm 16,6 C
15.07.2019 09:36:26 23,5 C 46,0% 450 ppm 16,9 C
15.07.2019 09:30:28 23,5 C 46,0% 450 ppm 17,0 C
15.07.2019 09:24:25 23,5 C 46,0% 450 ppm 16,9 C
15.07.2019 09:18:28 23,5 C 46,0% 450 ppm 16,7 C
15.07.2019 09:12:26 23,5 C 46,0% 450 ppm 16,5 C
15.07.2019 09:06:26 23,5 C 46,0% 450 ppm 16,1 C
15.07.2019 09:00:27 23,5 C 46,0% 450 ppm 16,1 C
15.07.2019 08:54:26 23,5 C 47,0% 450 ppm 16,2 C
15.07.2019 08:48:26 24,0 C 47,0% 450 ppm 16,3 C
15.07.2019 08:42:31 24,0 C 47,0% 450 ppm 16,2 C
15.07.2019 08:36:29 24,0 C 47,0% 450 ppm 16,1 C
15.07.2019 08:30:29 24,0 C 47,0% 450 ppm 16,0 C
15.07.2019 08:24:27 24,0 C 47,0% 450 ppm 16,1 C
15.07.2019 08:18:31 24,0 C 47,0% 450 ppm 15,9 C
15.07.2019 08:12:25 24,0 C 47,0% 450 ppm 15,8 C
15.07.2019 08:06:25 24,0 C 48,0% 450 ppm 15,6 C
15.07.2019 08:00:27 24,0 C 48,0% 450 ppm 15,4 C
15.07.2019 07:54:26 24,0 C 48,0% 450 ppm 15,3 C
15.07.2019 07:48:29 24,0 C 48,0% 500 ppm 15,2 C
15.07.2019 07:42:25 24,0 C 48,0% 450 ppm 15,2 C
15.07.2019 07:36:30 24,0 C 48,0% 450 ppm 14,9 C
15.07.2019 07:30:24 24,0 C 48,0% 450 ppm 14,9 C
15.07.2019 07:24:29 24,0 C 48,0% 450 ppm 14,8 C
15.07.2019 07:18:29 24,0 C 48,0% 450 ppm 14,9 C
15.07.2019 07:12:29 24,0 C 48,0% 450 ppm 14,6 C
15.07.2019 07:06:28 24,0 C 48,0% 450 ppm 14,3 C
15.07.2019 07:00:25 24,0 C 48,0% 450 ppm 14,4 C
15.07.2019 06:54:26 24,0 C 48,0% 450 ppm 14,4 C
15.07.2019 06:48:24 24,0 C 48,0% 450 ppm 14,3 C
15.07.2019 06:42:24 24,0 C 48,0% 450 ppm 14,2 C
15.07.2019 06:37:48 23,5 C 48,0% 100 ppm 14,1 C
15.07.2019 06:30:27 23,5 C 48,0% 450 ppm 14,0 C
15.07.2019 06:24:22 23,5 C 47,0% 450 ppm 14,0 C
15.07.2019 06:18:21 24,0 C 48,0% 450 ppm 13,8 C
15.07.2019 06:12:20 24,0 C 48,0% 450 ppm 13,9 C
15.07.2019 06:06:24 24,0 C 48,0% 450 ppm 14,0 C
15.07.2019 06:00:22 24,0 C 48,0% 450 ppm 14,0 C
15.07.2019 05:54:25 24,0 C 48,0% 450 ppm 14,0 C
15.07.2019 05:48:23 24,0 C 48,0% 450 ppm 14,0 C
15.07.2019 05:42:23 24,0 C 48,0% 450 ppm 14,0 C
15.07.2019 05:36:20 24,0 C 48,0% 450 ppm 13,9 C
15.07.2019 05:30:23 24,0 C 48,0% 450 ppm 14,0 C
15.07.2019 05:24:19 24,0 C 48,0% 450 ppm 14,0 C
15.07.2019 05:18:21 24,0 C 48,0% 450 ppm 14,0 C
15.07.2019 05:12:21 24,0 C 48,0% 450 ppm 14,0 C
15.07.2019 05:06:23 24,0 C 48,0% 450 ppm 14,0 C
15.07.2019 05:01:47 24,0 C 48,0% 100 ppm 14,1 C
15.07.2019 04:48:20 24,0 C 48,0% 450 ppm 13,8 C
15.07.2019 04:42:25 24,0 C 48,0% 450 ppm 14,1 C
15.07.2019 04:36:24 24,0 C 48,0% 450 ppm 14,1 C
15.07.2019 04:30:24 24,0 C 48,0% 450 ppm 14,1 C
15.07.2019 04:24:19 24,0 C 48,0% 450 ppm 14,2 C
15.07.2019 04:18:24 24,0 C 48,0% 450 ppm 14,2 C
15.07.2019 04:12:23 24,0 C 48,0% 450 ppm 14,2 C
15.07.2019 04:06:19 24,0 C 48,0% 450 ppm 14,0 C
15.07.2019 04:00:23 24,0 C 48,0% 450 ppm 14,2 C
15.07.2019 03:55:47 24,0 C 48,0% 100 ppm 14,2 C
15.07.2019 03:48:20 24,0 C 48,0% 450 ppm 14,2 C
15.07.2019 03:42:20 24,0 C 48,0% 450 ppm 14,2 C
15.07.2019 03:36:23 24,0 C 48,0% 450 ppm 14,2 C
15.07.2019 03:30:20 24,0 C 48,0% 450 ppm 14,3 C
15.07.2019 03:24:19 24,0 C 48,0% 450 ppm 14,2 C
15.07.2019 03:18:21 24,0 C 48,0% 450 ppm 14,2 C
15.07.2019 03:12:19 24,0 C 48,0% 450 ppm 14,1 C
15.07.2019 03:06:19 24,0 C 48,0% 450 ppm 14,0 C
15.07.2019 03:00:18 24,0 C 48,0% 450 ppm 14,2 C
15.07.2019 02:54:18 24,0 C 48,0% 450 ppm 14,1 C
15.07.2019 02:48:18 24,0 C 48,0% 450 ppm 14,3 C
15.07.2019 02:42:19 24,0 C 48,0% 450 ppm 14,4 C
15.07.2019 02:37:43 24,0 C 48,0% 100 ppm 14,3 C
15.07.2019 02:30:19 24,0 C 48,0% 450 ppm 14,3 C
15.07.2019 02:24:19 24,0 C 48,0% 450 ppm 14,3 C
15.07.2019 02:18:21 24,0 C 48,0% 450 ppm 14,5 C
15.07.2019 02:12:16 24,0 C 48,0% 450 ppm 14,5 C
15.07.2019 02:06:22 24,0 C 48,0% 450 ppm 14,5 C
15.07.2019 02:00:16 24,0 C 48,0% 450 ppm 14,4 C
15.07.2019 01:55:40 24,0 C 48,0% 100 ppm 14,4 C
15.07.2019 01:48:19 24,0 C 48,0% 450 ppm 14,5 C
15.07.2019 01:42:18 24,0 C 48,0% 450 ppm 14,6 C
15.07.2019 01:36:18 24,0 C 48,0% 500 ppm 14,6 C
15.07.2019 01:30:16 24,0 C 48,0% 500 ppm 14,5 C
15.07.2019 01:24:15 24,5 C 48,0% 500 ppm 14,5 C
15.07.2019 01:18:18 24,5 C 48,0% 500 ppm 14,5 C
15.07.2019 01:12:20 24,5 C 48,0% 500 ppm 14,4 C
15.07.2019 01:06:16 24,5 C 48,0% 500 ppm 14,4 C
15.07.2019 01:00:15 24,5 C 48,0% 500 ppm 14,6 C
15.07.2019 00:54:17 24,5 C 48,0% 500 ppm 14,6 C
15.07.2019 00:48:17 24,5 C 48,0% 500 ppm 14,5 C
15.07.2019 00:42:18 24,5 C 48,0% 500 ppm 14,6 C
15.07.2019 00:36:17 24,5 C 48,0% 500 ppm 14,7 C
15.07.2019 00:30:19 24,5 C 48,0% 550 ppm 14,5 C
15.07.2019 00:24:15 24,5 C 48,0% 450 ppm 14,5 C
15.07.2019 00:18:20 24,5 C 48,0% 450 ppm 14,6 C
15.07.2019 00:12:14 24,5 C 48,0% 450 ppm 14,8 C
15.07.2019 00:06:14 24,5 C 48,0% 450 ppm 14,9 C
15.07.2019 00:01:38 24,5 C 48,0% 100 ppm 14,7 C